Nenana, AK

9:58 AM AKDT on October 23, 2017 (GMT -0800)
Nenana Municipal

Weather History for PANN - January, 2014

Change the Weather History Date:

Friday, January 31, 2014

  Actual Average Record
Temperature  
Mean Temperature 14 °F -  
Max Temperature 37 °F -4 °F 57 °F (1998)
Min Temperature -8 °F -21 °F -40 °F (2012)
Degree Days  
Heating Degree Days 50    
Moisture  
Dew Point -5 °F    
Average Humidity 80    
Maximum Humidity 100    
Minimum Humidity 63    
Precipitation  
Precipitation 0.00 in - - ()
Sea Level Pressure  
Sea Level Pressure 30.31 in    
Wind  
Wind Speed 0 mph (WNW)    
Max Wind Speed 5 mph    
Max Gust Speed -    
Visibility 9 miles    
Events Fog    
Averages and records for this station are not official NWS values.
T = Trace of Precipitation, MM = Missing Value Source: NWS Daily Summary

Daily Weather History Graph

Daily Weather History Graph

Search for Another Location

Airport or City:

Trip Planner

Search our weather history database for the weather conditions in past years. The results will help you decide how hot, cold, wet, or windy it might be!

Date:

Astronomy

Jan. 31, 2014 Rise Set
Actual Time 9:42 AM AKST 4:38 PM AKST
Civil Twilight 8:43 AM AKST 5:37 PM AKST
Nautical Twilight 7:43 AM AKST 6:37 PM AKST
Astronomical Twilight 6:46 AM AKST 7:33 PM AKST
Moon 9:12 AM AKST (1/31) 7:10 PM AKST (1/31)
Length of Visible Light 8h 53m
Length of Day
6h 56m
New Moon, 1% of the Moon is Illuminated
Jan 31
New Moon
Feb 6
First Quarter
Feb 14
Full
Feb 22
Last Quarter
Feb 28
New

Hourly Weather History & Observations

Time (AKST) Temp. Windchill Dew Point Humidity Pressure Visibility Wind Dir Wind Speed Gust Speed Precip Events Conditions
12:53 AM -5.1 °F - -9.9 °F 80% 30.30 in 10.0 mi Calm Calm - N/A   Overcast
1:53 AM -4.0 °F - -9.0 °F 79% 30.30 in 10.0 mi Calm Calm - N/A   Overcast
2:10 AM -4.0 °F - -8.0 °F 83% 30.25 in 1.8 mi Calm Calm - N/A   Overcast
2:21 AM -2.9 °F - -7.1 °F 82% 30.25 in 0.5 mi Calm Calm - N/A Fog Light Freezing Fog
2:37 AM -2.9 °F - -8.0 °F 79% 30.25 in 2.5 mi Calm Calm - N/A   Haze
2:45 AM -4.0 °F - -7.1 °F 87% 30.25 in 8.0 mi Calm Calm - N/A   Overcast
3:53 AM -5.1 °F - -9.9 °F 80% 30.31 in 10.0 mi Calm Calm - N/A   Overcast
4:18 AM -5.1 °F - -11.0 °F 76% 30.27 in 10.0 mi Calm Calm - N/A   Scattered Clouds
4:53 AM -6.0 °F - -11.0 °F 79% 30.32 in 10.0 mi Calm Calm - N/A   Clear
5:53 AM -7.1 °F - -11.9 °F 79% 30.32 in 10.0 mi Calm Calm - N/A   Clear
6:53 AM -7.1 °F - -13.0 °F 75% 30.33 in 10.0 mi Calm Calm - N/A   Clear
7:23 AM -8.0 °F - -14.1 °F 75% 30.28 in 10.0 mi Calm Calm - N/A   Scattered Clouds
7:32 AM -8.0 °F - -14.1 °F 75% 30.28 in 10.0 mi Calm Calm - N/A   Mostly Cloudy
7:53 AM -9.0 °F - -14.1 °F 79% 30.33 in 10.0 mi Calm Calm - N/A   Overcast
8:53 AM -7.1 °F - -11.9 °F 79% 30.35 in 10.0 mi Calm Calm - N/A   Overcast
9:53 AM -8.0 °F - -14.1 °F 75% 30.35 in 10.0 mi Calm Calm - N/A   Overcast
10:53 AM -7.1 °F - -11.9 °F 79% 30.36 in 10.0 mi Calm Calm - N/A   Mostly Cloudy
11:13 AM -6.0 °F - -11.0 °F 79% 30.31 in 10.0 mi Calm Calm - N/A   Partly Cloudy
11:30 AM -5.1 °F - -9.9 °F 80% 30.31 in 10.0 mi Calm Calm - N/A   Mostly Cloudy
11:53 AM -5.1 °F - -9.9 °F 80% 30.37 in 10.0 mi Calm Calm - N/A   Overcast
12:45 PM -2.9 °F - -8.0 °F 79% 30.32 in 10.0 mi Calm Calm - N/A   Scattered Clouds
12:53 PM -2.0 °F - -8.0 °F 76% 30.37 in 10.0 mi Calm Calm - N/A   Partly Cloudy
1:53 PM 1.0 °F - -4.0 °F 79% 30.37 in 10.0 mi Calm Calm - 0.00 in   Partly Cloudy
2:53 PM 1.9 °F - -2.9 °F 80% 30.36 in 10.0 mi Calm Calm - 0.00 in   Clear
3:53 PM 1.9 °F - -2.9 °F 80% 30.37 in 10.0 mi Calm Calm - 0.00 in   Clear
4:53 PM -0.0 °F -9.9 °F -5.1 °F 79% 30.38 in 10.0 mi WNW 4.6 mph - 0.00 in   Clear
5:53 PM -0.9 °F - -5.1 °F 83% 30.38 in 10.0 mi Calm Calm - 0.00 in   Clear
6:53 PM -2.0 °F - -7.1 °F 79% 30.39 in 10.0 mi Calm Calm - N/A   Clear
7:53 PM -2.9 °F - -9.0 °F 75% 30.39 in 10.0 mi Calm Calm - N/A   Clear
8:53 PM -4.0 °F - -9.0 °F 79% 30.39 in 10.0 mi Calm Calm - N/A   Clear
9:53 PM -2.0 °F -12.2 °F -7.1 °F 79% 30.40 in 10.0 mi WNW 4.6 mph - N/A   Clear
10:53 PM -2.9 °F - -8.0 °F 79% 30.41 in 10.0 mi Calm Calm - N/A   Clear
11:53 PM -4.0 °F - -9.9 °F 76% 30.41 in 10.0 mi Calm Calm - N/A   Clear